View from above orbital plane
|
View from above satellite
|
Ground track
|
The orbit data is extracted from the following two-line orbital elements,
1 22285U 92093B 21021.16766348 -.00000063 00000-0 -78083-5 0 9991
2 22285 71.0235 335.7690 0006777 279.3908 80.6448 14.15056237448120
Epoch (UTC): | 21 January 2021 04:01:26 |
Eccentricity: | 0.0006777 |
inclination: | 71.0235° |
perigee height: | 837 km |
apogee height: | 847 km |
right ascension of ascending node: | 335.7690° |
argument of perigee: | 279.3908° |
revolutions per day: | 14.15056237 |
mean anomaly at epoch: | 80.6448° |
orbit number at epoch: | 44812 |
The dashed part of the orbit path shows where the satellite is in the earth's shadow,
|
|